Weather History for KOCF - December, 2012

Change the Weather History Date:

Saturday, December 22, 2012

  Actual Average Record
Temperature  
Mean Temperature 46 °F -  
Max Temperature 60 °F 65 °F 84 °F (2013)
Min Temperature 32 °F 42 °F 28 °F (2005)
Degree Days  
Heating Degree Days 19    
Moisture  
Dew Point 20 °F    
Average Humidity 48    
Maximum Humidity 81    
Minimum Humidity 17    
Precipitation  
Precipitation 0.00 in - - ()
Sea Level Pressure  
Sea Level Pressure 30.25 in    
Wind  
Wind Speed 5 mph (NW)    
Max Wind Speed 12 mph    
Max Gust Speed -    
Visibility 10 miles    
Events      
Averages and records for this station are not official NWS values.
T = Trace of Precipitation, MM = Missing Value Source: NWS Daily Summary

Daily Weather History Graph

Daily Weather History Graph

Search for Another Location

Airport or City:

Trip Planner

Search our weather history database for the weather conditions in past years. The results will help you decide how hot, cold, wet, or windy it might be!

Date:

Astronomy

Dec. 22, 2012 Rise Set
Actual Time 7:19 AM EST 5:36 PM EST
Civil Twilight 6:53 AM EST 6:02 PM EST
Nautical Twilight 6:23 AM EST 6:31 PM EST
Astronomical Twilight 5:54 AM EST 7:01 PM EST
Moon 1:40 PM EST (12/22) 2:17 AM EST (12/22)
Length of Visible Light 11h 09m
Length of Day
10h 16m
Waxing Gibbous, 73% of the Moon is Illuminated
Dec 22
Waxing Gibbous
Dec 28
Full
Jan 4
Last Quarter
Jan 11
New
Jan 18
First Quarter

Hourly Weather History & Observations

Time (EST) Temp. Windchill Dew Point Humidity Pressure Visibility Wind Dir Wind Speed Gust Speed Precip Events Conditions
12:15 AM 42.8 °F 38.6 °F 17.6 °F 36% 30.23 in 10.0 mi NW 6.9 mph - N/A   Clear
12:35 AM 41.0 °F 36.4 °F 17.6 °F 39% 30.23 in 10.0 mi NW 6.9 mph - N/A   Clear
12:55 AM 41.0 °F 37.1 °F 17.6 °F 39% 30.23 in 10.0 mi NW 5.8 mph - N/A   Clear
1:15 AM 39.2 °F 34.2 °F 17.6 °F 42% 30.23 in 10.0 mi WNW 6.9 mph - N/A   Clear
1:35 AM 39.2 °F 35.0 °F 17.6 °F 42% 30.23 in 10.0 mi WNW 5.8 mph - N/A   Clear
1:55 AM 39.2 °F 35.9 °F 17.6 °F 42% 30.23 in 10.0 mi WNW 4.6 mph - N/A   Clear
2:15 AM 39.2 °F 35.0 °F 17.6 °F 42% 30.24 in 10.0 mi WNW 5.8 mph - N/A   Clear
2:35 AM 39.2 °F 34.2 °F 17.6 °F 42% 30.23 in 10.0 mi NW 6.9 mph - N/A   Clear
2:55 AM 37.4 °F 32.8 °F 17.6 °F 45% 30.24 in 10.0 mi WNW 5.8 mph - N/A   Clear
3:15 AM 37.4 °F 32.8 °F 17.6 °F 45% 30.24 in 10.0 mi NW 5.8 mph - N/A   Clear
3:35 AM 37.4 °F 33.8 °F 17.6 °F 45% 30.24 in 10.0 mi West 4.6 mph - N/A   Clear
3:55 AM 37.4 °F 32.8 °F 17.6 °F 45% 30.24 in 10.0 mi West 5.8 mph - N/A   Clear
4:15 AM 37.4 °F 32.8 °F 17.6 °F 45% 30.23 in 10.0 mi WNW 5.8 mph - N/A   Clear
4:35 AM 35.6 °F 30.7 °F 17.6 °F 48% 30.23 in 10.0 mi WNW 5.8 mph - N/A   Clear
4:55 AM 35.6 °F 30.7 °F 17.6 °F 48% 30.24 in 10.0 mi WNW 5.8 mph - N/A   Clear
5:15 AM 35.6 °F 30.7 °F 17.6 °F 48% 30.24 in 10.0 mi WNW 5.8 mph - N/A   Clear
5:35 AM 35.6 °F 30.7 °F 17.6 °F 48% 30.24 in 10.0 mi NW 5.8 mph - N/A   Clear
5:55 AM 35.6 °F 32.8 °F 17.6 °F 48% 30.24 in 10.0 mi NW 3.5 mph - N/A   Clear
6:15 AM 33.8 °F 29.6 °F 17.6 °F 52% 30.25 in 10.0 mi NW 4.6 mph - N/A   Clear
6:35 AM 33.8 °F 30.8 °F 17.6 °F 52% 30.25 in 10.0 mi North 3.5 mph - N/A   Clear
6:50 AM 32.0 °F 27.5 °F 17.6 °F 55% 30.25 in 10.0 mi NNW 4.6 mph - N/A   Clear
7:50 AM 33.8 °F 29.6 °F 17.6 °F 52% 30.29 in 10.0 mi NW 4.6 mph - N/A   Clear
8:50 AM 39.2 °F 34.2 °F 19.4 °F 45% 30.31 in 10.0 mi NW 6.9 mph - N/A   Clear
9:50 AM 44.6 °F 38.8 °F 17.6 °F 34% 30.32 in 10.0 mi North 11.5 mph - N/A   Clear
10:50 AM 48.2 °F - 17.6 °F 30% 30.32 in 10.0 mi NNW 6.9 mph - N/A   Clear
11:50 AM 51.8 °F - 17.6 °F 26% 30.30 in 10.0 mi NNW 6.9 mph - N/A   Clear
12:50 PM 55.4 °F - 17.6 °F 23% 30.26 in 10.0 mi NW 8.1 mph - N/A   Clear
1:50 PM 60.8 °F - 17.6 °F 19% 30.23 in 10.0 mi WNW 4.6 mph - N/A   Clear
2:50 PM 60.8 °F - 17.6 °F 19% 30.22 in 10.0 mi NW 9.2 mph - N/A   Clear
3:50 PM 60.8 °F - 15.8 °F 17% 30.22 in 10.0 mi NW 9.2 mph - N/A   Clear
4:50 PM 57.2 °F - 17.6 °F 21% 30.22 in 10.0 mi WNW 5.8 mph - N/A   Clear
5:50 PM 53.6 °F - 19.4 °F 26% 30.23 in 10.0 mi WNW 5.8 mph - N/A   Clear
6:50 PM 48.2 °F - 21.2 °F 34% - 10.0 mi WNW 4.6 mph - N/A   Clear
7:55 PM 41.0 °F - 24.8 °F 53% 30.25 in 10.0 mi Calm Calm - N/A   Clear
8:15 PM 39.2 °F - 24.8 °F 56% 30.26 in 10.0 mi Calm Calm - N/A   Clear
8:35 PM 39.2 °F - 24.8 °F 56% 30.26 in 10.0 mi Calm Calm - N/A   Clear
8:55 PM 37.4 °F - 26.6 °F 65% 30.26 in 10.0 mi Calm Calm - N/A   Clear
9:15 PM 37.4 °F - 26.6 °F 65% 30.26 in 10.0 mi Calm Calm - N/A   Clear
9:35 PM 37.4 °F - 26.6 °F 65% 30.26 in 10.0 mi Calm Calm - N/A   Clear
9:55 PM 35.6 °F - 26.6 °F 70% 30.27 in 10.0 mi Calm Calm - N/A   Clear
10:15 PM 33.8 °F - 26.6 °F 75% 30.27 in 10.0 mi Calm Calm - N/A   Clear
10:35 PM 33.8 °F - 28.4 °F 81% 30.28 in 10.0 mi Calm Calm - N/A   Clear
10:55 PM 33.8 °F - 28.4 °F 81% 30.27 in 10.0 mi Calm Calm - N/A   Clear
11:15 PM 33.8 °F - 28.4 °F 81% 30.27 in 10.0 mi Calm Calm - N/A   Clear
11:35 PM 33.8 °F - 26.6 °F 75% 30.27 in 10.0 mi Calm Calm - N/A   Clear
11:55 PM 32.0 °F - 26.6 °F 80% 30.27 in 10.0 mi Calm Calm - N/A   Clear